CW5234 Weather Reports


time (UTC)temp
C
wind
direction
speed
KPH
gust
KPH
rain 1hr
cm
rain 24hr
cm
rain mn
cm
humidity
%
barometer
mb
20260506232115 18 190 3.2 8.0 0.00 0.33 0.33 81 1009.0
20260506231118 19 230 0.0 1.6 0.00 0.33 0.33 80 1009.0
20260506225214 19 97 1.6 4.8 0.00 0.33 0.33 79 1008.7
20260506225116 19 148 0.0 3.2 0.00 0.33 0.33 79 1008.7
20260506224115 19 39 0.0 4.8 0.00 0.33 0.33 80 1008.7
20260506223115 19 166 1.6 4.8 0.00 0.33 0.33 80 1008.6
20260506222213 19 183 0.0 1.6 0.00 0.33 0.33 79 1008.8
20260506221216 19 134 3.2 4.8 0.00 0.33 0.33 80 1008.8
20260506215315 18 182 0.0 0.0 0.00 0.33 0.33 82 1008.7
20260506214314 18 116 1.6 3.2 0.00 0.33 0.33 83 1008.6
20260506213318 18 180 0.0 1.6 0.00 0.33 0.33 82 1008.5
20260506212314 18 145 1.6 3.2 0.00 0.33 0.33 83 1008.5
20260506211317 18 157 3.2 8.0 0.00 0.33 0.33 84 1008.6
20260506210315 18 130 1.6 4.8 0.00 0.33 0.33 83 1008.5
20260506205314 18 213 0.0 1.6 0.00 0.33 0.33 85 1008.4
20260506204314 17 229 3.2 9.7 0.00 0.33 0.33 87 1008.5
20260506202316 17 156 0.0 3.2 0.00 0.33 0.33 88 1008.4
20260506201315 17 157 3.2 6.4 0.00 0.33 0.33 88 1008.2
20260506200414 17 134 3.2 8.0 0.00 0.33 0.33 88 1008.5
20260506195415 17 157 1.6 1.6 0.00 0.33 0.33 89 1008.5
20260506193415 16 210 1.6 4.8 0.00 0.33 0.33 92 1008.9
20260506192414 16 266 0.0 4.8 0.00 0.33 0.33 91 1009.1
20260506191415 16 202 0.0 1.6 0.00 0.33 0.33 91 1009.1
20260506185515 16 213 0.0 0.0 0.00 0.33 0.33 89 1009.3
20260506184516 16 94 3.2 8.0 0.00 0.33 0.33 90 1009.2
20260506183516 16 160 0.0 0.0 0.00 0.33 0.33 90 1009.2
20260506182515 16 135 1.6 1.6 0.00 0.33 0.33 89 1009.3
20260506181516 16 152 6.4 8.0 0.00 0.33 0.33 91 1009.3
20260506180514 16 160 0.0 4.8 0.00 0.33 0.33 91 1009.4
20260506175515 16 175 8.0 12.9 0.03 0.33 0.33 91 1009.6
20260506174515 16 181 3.2 6.4 0.03 0.33 0.33 91 1009.5
20260506173516 16 135 1.6 3.2 0.03 0.33 0.33 91 1009.9
20260506172514 16 219 0.0 3.2 0.03 0.33 0.33 90 1009.9
20260506170516 17 157 3.2 4.8 0.10 0.33 0.33 92 1009.6
20260506164614 16 200 0.0 0.0 0.15 0.30 0.30 92 1009.7
20260506164515 16 227 0.0 4.8 0.15 0.30 0.30 91 1009.9
20260506163515 16 175 4.8 4.8 0.20 0.30 0.30 92 1009.6
20260506162614 16 208 3.2 3.2 0.25 0.30 0.30 92 1010.3
20260506161615 16 202 0.0 0.0 0.23 0.28 0.28 90 1010.6
20260506160714 16 180 3.2 3.2 0.20 0.25 0.25 90 1010.8
20260506155716 16 157 0.0 0.0 0.18 0.20 0.20 88 1011.0
20260506154714 16 157 3.2 3.2 0.18 0.18 0.15 86 1010.9
20260506152715 16 202 0.0 0.0 0.08 0.08 0.05 84 1011.1
20260506152615 16 196 1.6 6.4 0.05 0.05 0.05 84 1011.0
20260506151614 16 156 0.0 1.6 0.05 0.05 0.05 83 1010.8
20260506150615 17 183 1.6 6.4 0.03 0.03 0.03 82 1010.8
20260506145714 17 157 0.0 1.6 0.03 0.03 0.03 79 1010.9
20260506144813 18 116 3.2 4.8 0.00 0.00 0.00 75 1011.0
20260506143814 18 156 1.6 6.4 0.00 0.00 0.00 72 1010.9
20260506142815 19 112 4.8 6.4 0.00 0.00 0.00 69 1011.0
20260506141814 19 178 1.6 6.4 0.00 0.00 0.00 68 1010.8
20260506140815 20 169 1.6 3.2 0.00 0.00 0.00 69 1010.8
20260506135816 19 159 6.4 17.7 0.00 0.00 0.00 70 1010.6
20260506134815 18 163 6.4 14.5 0.00 0.00 0.00 71 1010.9
20260506133815 18 179 1.6 3.2 0.00 0.00 0.00 72 1010.8
20260506131915 18 167 3.2 6.4 0.00 0.00 0.00 70 1010.9
20260506131817 18 176 4.8 9.7 0.00 0.00 0.00 71 1011.0
20260506130815 18 199 6.4 12.9 0.00 0.00 0.00 71 1010.9
20260506125815 18 197 1.6 3.2 0.00 0.00 0.00 72 1011.0
20260506124814 18 145 4.8 11.3 0.00 0.00 0.00 73 1011.0
20260506124715 18 132 8.0 14.5 0.00 0.00 0.00 73 1011.0
20260506122714 18 211 1.6 11.3 0.00 0.00 0.00 74 1010.9
20260506121715 17 188 3.2 14.5 0.00 0.00 0.00 75 1010.9
20260506120714 17 164 3.2 4.8 0.00 0.00 0.00 76 1011.0
20260506115715 17 248 1.6 4.8 0.00 0.00 0.00 76 1011.0
20260506113714 17 198 4.8 6.4 0.00 0.00 0.00 75 1010.9
20260506112714 17 218 4.8 9.7 0.00 0.00 0.00 76 1010.9
20260506111813 17 180 0.0 1.6 0.00 0.00 0.00 76 1011.0
20260506110815 17 134 3.2 9.7 0.00 0.00 0.00 77 1010.8
20260506104915 17 157 0.0 1.6 0.00 0.00 0.00 78 1010.8
20260506104014 17 217 0.0 1.6 0.00 0.00 0.00 78 1010.8
20260506103015 17 225 1.6 4.8 0.00 0.00 0.00 77 1010.7
20260506102015 17 202 0.0 1.6 0.00 0.00 0.00 79 1010.7
20260506100022 17 208 3.2 8.0 0.00 0.00 0.00 79 1010.8
20260506095017 17 180 0.0 1.6 0.00 0.00 0.00 78 1010.7
20260506094015 17 181 0.0 3.2 0.00 0.00 0.00 78 1010.6
20260506093014 17 211 0.0 3.2 0.00 0.00 0.00 78 1010.6
20260506092016 17 201 3.2 11.3 0.00 0.00 0.00 77 1010.7
20260506090113 17 225 0.0 1.6 0.00 0.00 0.00 78 1010.7
20260506085114 17 197 1.6 3.2 0.00 0.00 0.00 78 1010.9
20260506084115 17 183 1.6 4.8 0.00 0.00 0.00 78 1010.8
20260506083115 17 208 1.6 4.8 0.00 0.00 0.00 77 1010.8
20260506082116 17 180 1.6 3.2 0.00 0.00 0.00 77 1010.8
20260506081214 17 210 0.0 3.2 0.00 0.00 0.00 76 1010.8
20260506080214 17 180 0.0 1.6 0.00 0.00 0.00 76 1010.9
20260506072213 18 180 0.0 1.6 0.00 0.00 0.00 75 1010.9
20260506070314 18 247 0.0 1.6 0.00 0.00 0.00 73 1011.0
20260506062514 18 180 0.0 1.6 0.00 0.00 0.00 71 1011.4
20260506061515 18 217 3.2 4.8 0.00 0.00 0.00 70 1011.4
20260506060514 18 180 0.0 1.6 0.00 0.00 0.00 70 1011.3
20260506044615 19 201 8.0 12.9 0.00 0.00 0.00 65 1011.9
20260506043713 19 157 0.0 1.6 0.00 0.00 0.00 64 1011.9
20260506042715 19 202 0.0 0.0 0.00 0.00 0.00 63 1011.8
20260506041714 19 157 0.0 1.6 0.00 0.00 0.00 62 1011.8
20260506035723 20 225 3.2 6.4 0.00 0.00 0.00 61 1011.7
20260506034721 20 181 4.8 9.7 0.00 0.00 0.00 61 1011.7
20260506033723 20 224 1.6 4.8 0.00 0.00 0.00 60 1011.7
20260506032721 19 174 0.0 1.6 0.00 0.00 0.00 61 1011.7
20260506031722 20 202 0.0 1.6 0.00 0.00 0.00 60 1011.6
20260506030721 20 225 0.0 0.0 0.00 0.00 0.00 60 1011.6
20260506025820 20 217 1.6 3.2 0.00 0.00 0.00 59 1011.7
20260506024920 20 180 0.0 0.0 0.00 0.00 0.00 59 1011.8
20260506023921 20 228 6.4 11.3 0.00 0.00 0.00 59 1011.8
20260506022922 20 225 0.0 1.6 0.00 0.00 0.00 58 1011.8
20260506021920 20 187 1.6 3.2 0.00 0.00 0.00 56 1011.8
20260506020921 21 207 4.8 9.7 0.00 0.00 0.00 55 1011.7
20260506015920 21 188 0.0 1.6 0.00 0.00 0.00 53 1011.8
20260506013924 21 178 4.8 6.4 0.00 0.00 0.00 48 1011.5
20260506011020 22 277 1.6 4.8 0.00 0.00 0.00 44 1011.2
20260506010021 23 263 0.0 1.6 0.00 0.00 0.00 43 1010.9
20260506005120 23 225 0.0 1.6 0.00 0.00 0.00 43 1011.0
20260506004123 23 168 3.2 4.8 0.00 0.00 0.00 42 1010.7
20260506003121 23 180 0.0 1.6 0.00 0.00 0.00 43 1010.7
20260506002220 23 157 0.0 3.2 0.00 0.00 0.00 43 1010.7
20260506001223 23 189 3.2 9.7 0.00 0.00 0.00 43 1010.5
20260506000222 23 179 4.8 8.0 0.00 0.00 0.00 41 1010.4
20260505235221 23 173 3.2 11.3 0.00 0.00 0.00 42 1010.2
20260505234221 24 135 0.0 3.2 0.00 0.00 0.00 41 1010.3
20260505233221 25 180 1.6 6.4 0.00 0.00 0.00 39 1010.3